Location: Jaite
(41.2884°N, 81.5737°W)
Time: 05:53:32
(UTC+00:00)

ACS3 Solar Sail - Visible Passes

Search period start: 05 October 2024 00:00
Search period end: 15 October 2024 00:00
Orbit: 963 x 1036 km, 97.4° (Epoch: 04 October)

Date Brightness Start Highest point End Pass type
(mag) Time Alt. Az. Time Alt. Az. Time Alt. Az.
05 Oct 2.2 00:45:13 34° ESE 00:47:15 43° ENE 00:53:12 10° N visible
05 Oct 3.3 02:30:24 30° WSW 02:31:16 31° W 02:36:51 10° NNW visible
05 Oct 3.5 23:33:31 10° E 23:36:14 13° ENE 23:38:56 10° NNE visible
06 Oct 1.7 01:17:44 57° SE 01:19:07 76° ENE 01:25:29 10° N visible
06 Oct 4.1 03:02:55 17° W 03:03:39 17° W 03:07:37 10° NW visible
07 Oct 3.0 00:05:04 18° E 00:07:44 23° ENE 00:12:30 10° NNE visible
07 Oct 2.2 01:50:15 56° SW 01:51:09 62° W 01:57:27 10° NNW visible
08 Oct 2.3 00:37:35 33° ESE 00:39:24 40° ENE 00:45:13 10° N visible
08 Oct 3.1 02:22:46 34° WSW 02:23:20 34° W 02:29:04 10° NNW visible
08 Oct 3.6 23:26:24 10° ENE 23:28:26 12° ENE 23:30:29 10° NE visible
09 Oct 1.8 01:10:06 58° SE 01:11:14 70° ENE 01:17:33 10° N visible
09 Oct 4.0 02:55:17 19° W 02:55:41 19° W 02:59:59 10° NW visible
09 Oct 3.1 23:57:26 17° E 23:59:55 21° ENE 00:04:25 10° NNE visible
10 Oct 2.1 01:42:36 64° SW 01:43:14 68° W 01:49:34 10° NNW visible
11 Oct 2.4 00:29:56 31° E 00:31:33 36° ENE 00:37:13 10° N visible
11 Oct 3.0 02:15:07 37° W 02:15:24 38° W 02:21:14 10° NNW visible
11 Oct 3.6 23:19:42 10° ENE 23:20:39 10° NE 23:21:36 10° NE visible
12 Oct 1.8 01:02:27 57° ESE 01:03:22 63° ENE 01:09:36 10° N visible
12 Oct 3.9 02:47:38 21° W 02:47:44 21° W 02:52:19 10° NW visible
12 Oct 3.2 23:49:47 16° E 23:52:05 19° ENE 23:56:17 10° NNE visible
13 Oct 1.9 01:34:58 72° SW 01:35:20 75° W 01:41:40 10° NNW visible
13 Oct 4.5 03:20:09 10° W 03:20:14 10° W 03:20:49 10° WNW visible
14 Oct 2.5 00:22:17 30° E 00:23:42 33° ENE 00:29:11 10° N visible
14 Oct 2.9 02:07:28 41° W 02:07:28 41° W 02:13:24 10° NNW visible
